[[{"header":{"parameterUnit":"m.s-1","parameterCategory":2,"la1":30.2991,"la2":30.254,"lo1":-89.0895,"lo2":-89.0444,"dy":0.0017,"dx":0.0017,"nx":28,"ny":28,"refTime":"2023-11-10T09:00:00:Z","depth":"0","parameterNumber":2,"parameterNumberName":"U-component_of_CURRENTS"},"data":[0,0,0,0,0,0,0,0,0,0,0,0,0,0,0,0,0,0,0,0,0,0,0,0,0,0,0,0,0,0,0,0,0,0,0,0,0,0,0,0,0,0,0,0,0,0,0,0,0,0,0,0,0,0,0,0,0,0,-0.2069,-0.207,0,-0.2104,-0.2104,-0.2104,-0.2111,-0.2111,-0.2111,-0.2112,-0.2023,-0.2021,-0.2019,0,0,0,0,0,0,0,0,0,0,0,0,0,-0.2035,-0.2035,-0.2069,-0.207,-0.2071,-0.2104,-0.2104,-0.2104,-0.2111,-0.2111,-0.2111,-0.2112,-0.2024,-0.2021,-0.2018,0,0,0,0,0,0,0,0,0,0,0,0,0,-0.2054,-0.2035,-0.2069,-0.2082,-0.2083,-0.2104,-0.2104,-0.2104,-0.2111,-0.2111,-0.2111,-0.2112,-0.2025,-0.2022,-0.2018,-0.1991,0,0,-0.2007,-0.2005,0,0,0,0,0,0,0,0,-0.2052,-0.2054,-0.2079,-0.2081,-0.2083,-0.2107,-0.206,-0.2062,-0.2111,-0.2096,-0.2112,-0.2112,-0.2043,-0.2038,-0.2039,-0.1987,-0.1984,-0.2006,-0.2004,-0.2003,-0.2002,0,0,0,0,0,0,0,-0.2051,-0.2053,-0.2079,-0.208,-0.2082,-0.2095,-0.2097,-0.2061,-0.2062,-0.2097,-0.2099,-0.211,-0.2042,-0.2043,-0.2037,-0.1982,-0.2007,-0.2003,-0.2001,-0.2,-0.1936,-0.1937,0,0,0,0,0,0,-0.2054,-0.2052,-0.2078,-0.208,-0.2073,-0.2095,-0.2097,-0.2096,-0.2065,-0.2063,-0.2109,-0.211,-0.2049,-0.2041,-0.2034,-0.2026,-0.2003,-0.1999,-0.1997,-0.1936,-0.1936,-0.1937,0,0,0,0,0,0,-0.2053,-0.2055,-0.2076,-0.2071,-0.2075,-0.2096,-0.2094,-0.2096,-0.2102,-0.2077,-0.2071,-0.2114,-0.2049,-0.2039,-0.2014,-0.2022,-0.1997,-0.1994,-0.1935,-0.1936,-0.1936,-0.1994,0,0,0,0,0,0,-0.2051,-0.2054,-0.2058,-0.2071,-0.2076,-0.2099,-0.2094,-0.2097,-0.211,-0.2111,-0.2078,-0.2071,-0.2048,-0.202,-0.2011,-0.2016,-0.1991,-0.1934,-0.1935,-0.1936,-0.1991,-0.1996,-0.2001,0,0,0,0,0,-0.205,-0.206,-0.2057,-0.2061,-0.2078,-0.21,-0.2103,-0.2116,-0.2111,-0.212,-0.2098,-0.2072,-0.202,-0.2017,-0.2006,-0.2011,-0.1934,-0.1935,-0.1936,-0.1989,-0.1995,-0.2001,0,0,0,0,0,0,-0.2043,-0.2062,-0.206,-0.2073,-0.2089,-0.2103,-0.2113,-0.2118,-0.2109,-0.2105,-0.2072,-0.2063,-0.2051,-0.2019,-0.2018,-0.1997,-0.1974,-0.1973,-0.2018,-0.2024,-0.2029,-0.2035,-0.1988,0,0,0,0,0,-0.2043,-0.2061,-0.2072,-0.2085,-0.2086,-0.2096,-0.2107,-0.2118,-0.2114,-0.2112,-0.2087,-0.206,-0.2046,-0.2026,-0.2008,-0.1983,-0.1952,-0.1981,-0.1986,-0.199,-0.1989,-0.1955,-0.1957,-0.1941,-0.1941,-0.1941,0,0,-0.205,-0.206,-0.2072,-0.2087,-0.2091,-0.2103,-0.2102,-0.2122,-0.2134,-0.2099,-0.2092,-0.2077,-0.2046,-0.2036,-0.2026,-0.2008,-0.1979,-0.1992,-0.1996,-0.1992,-0.1957,-0.1958,-0.196,-0.1941,-0.1941,-0.1941,0,0,-0.2065,-0.2068,-0.2081,-0.2094,-0.2111,-0.2118,-0.2124,-0.2133,-0.2135,-0.2128,-0.2118,-0.2108,-0.2065,-0.2059,-0.2047,-0.2061,-0.2014,-0.2054,-0.2071,-0.2039,-0.204,-0.204,-0.2004,-0.2001,-0.2047,-0.2047,-0.2047,0,-0.2063,-0.2079,-0.2091,-0.2102,-0.211,-0.2122,-0.2131,-0.2142,-0.2146,-0.2138,-0.213,-0.2097,-0.2078,-0.2071,-0.2089,-0.2071,-0.2042,-0.2053,-0.2045,-0.2045,-0.2044,-0.2007,-0.2003,-0.205,-0.205,-0.2049,-0.2049,0,-0.2083,-0.2098,-0.2104,-0.2118,-0.2132,-0.2145,-0.2157,-0.2164,-0.2157,-0.2159,-0.2149,-0.2132,-0.2109,-0.2111,-0.2103,-0.2099,-0.2077,-0.2064,-0.2031,-0.2049,-0.2009,-0.2003,-0.2054,-0.2053,-0.2052,-0.2051,0,0,-0.205,-0.2106,-0.21,-0.2112,-0.2138,-0.2147,-0.2164,-0.2171,-0.2168,-0.2171,-0.2157,-0.2159,-0.2151,-0.2138,-0.2132,-0.2112,-0.2095,-0.209,-0.2087,-0.2056,-0.2018,-0.2051,-0.2047,-0.2078,-0.2078,-0.2077,-0.1992,0,-0.2046,-0.2075,-0.2101,-0.2123,-0.2134,-0.2151,-0.216,-0.2175,-0.2173,-0.2165,-0.2161,-0.215,-0.2162,-0.2151,-0.214,-0.2104,-0.2083,-0.2119,-0.2003,-0.2,-0.2028,-0.2043,-0.2061,-0.1991,-0.1986,-0.1985,-0.1985,0,-0.203,-0.206,-0.2083,-0.2119,-0.2118,-0.2135,-0.2136,-0.2149,-0.2155,-0.2149,-0.215,-0.2147,-0.2141,-0.214,-0.2088,-0.2109,-0.2073,-0.2043,-0.2038,-0.2045,-0.2023,-0.1971,-0.1981,-0.191,-0.1975,-0.1976,-0.1977,0,-0.1987,-0.203,-0.2048,-0.2063,-0.2112,-0.2115,-0.2128,-0.2139,-0.2135,-0.2144,-0.2134,-0.2129,-0.2112,-0.2079,-0.2046,-0.2056,-0.1972,-0.1969,-0.1964,-0.1964,-0.1945,-0.1946,-0.1874,-0.1926,-0.1926,-0.1927,-0.1927,0,-0.1959,-0.1968,-0.2034,-0.2047,-0.2049,-0.2092,-0.208,-0.2095,-0.2106,-0.2114,-0.2126,-0.2136,-0.2095,-0.2057,-0.2028,-0.1983,-0.1954,-0.197,-0.1949,-0.1967,-0.1971,-0.1881,-0.1863,-0.1923,-0.1924,-0.1925,-0.1925,0,-0.1903,-0.1947,-0.1974,-0.2028,-0.2034,-0.2035,-0.205,-0.2049,-0.207,-0.2082,-0.2088,-0.2108,-0.2086,-0.2035,-0.1967,-0.1954,-0.1878,-0.1895,-0.1924,-0.1911,-0.1873,-0.1859,-0.1773,-0.1732,-0.1879,-0.1879,-0.188,0,-0.1875,-0.1891,-0.1943,-0.1949,-0.1972,-0.198,-0.1982,-0.2016,-0.2034,-0.2088,-0.2101,-0.2092,-0.2137,-0.2046,-0.2005,-0.1942,-0.187,-0.1895,-0.1936,-0.1878,-0.1844,-0.1822,-0.1792,-0.1919,-0.192,-0.192,-0.1921,0,-0.1826,-0.1847,-0.187,-0.1884,-0.1895,-0.1921,-0.1948,-0.1962,-0.2028,-0.2052,-0.214,-0.2191,-0.2173,-0.2147,-0.205,-0.2013,-0.1865,-0.1907,-0.1825,-0.1864,-0.1852,-0.1801,-0.196,-0.1925,-0.1925,-0.1924,-0.1924,-0.1924,-0.1767,-0.1766,-0.1793,-0.1792,-0.182,-0.1877,-0.186,-0.1933,-0.1974,-0.2004,-0.2132,-0.214,-0.2182,-0.21,-0.2083,-0.1952,-0.1929,-0.187,-0.1852,-0.1829,-0.1817,-0.2002,-0.1966,-0.1966,-0.1966,-0.1966,-0.1965,0,-0.1675,-0.1682,-0.1692,-0.1701,-0.1708,-0.1762,-0.1827,-0.181,-0.1847,-0.1904,-0.1966,-0.2013,-0.2025,-0.2002,-0.1947,-0.1891,-0.1858,-0.1785,-0.1735,-0.1701,-0.1837,-0.1867,-0.1835,-0.1835,-0.1835,-0.1835,-0.1835,-0.1835,-0.1621,-0.1592,-0.1601,-0.1578,-0.1591,-0.1581,-0.1608,-0.1628,-0.1641,-0.1645,-0.1624,-0.1702,-0.1723,-0.1866,-0.1804,-0.1751,-0.1651,-0.1639,-0.1561,-0.164,-0.1645,-0.165,-0.1671,-0.1599,-0.1598,-0.1418,-0.1417,-0.1416]},{"header":{"parameterUnit":"m.s-1","parameterCategory":2,"la1":30.2991,"la2":30.254,"lo1":-89.0895,"lo2":-89.0444,"dy":0.0017,"dx":0.0017,"nx":28,"ny":28,"refTime":"2023-11-10T09:00:00:Z","depth":"0","parameterNumber":3,"parameterNumberName":"V-component_of_CURRENTS"},"data":[0,0,0,0,0,0,0,0,0,0,0,0,0,0,0,0,0,0,0,0,0,0,0,0,0,0,0,0,0,0,0,0,0,0,0,0,0,0,0,0,0,0,0,0,0,0,0,0,0,0,0,0,0,0,0,0,0,0,-0.0292,-0.0292,0,-0.0278,-0.0277,-0.0277,-0.0293,-0.0294,-0.0295,-0.0295,-0.0276,-0.0274,-0.0273,0,0,0,0,0,0,0,0,0,0,0,0,0,-0.0259,-0.026,-0.0292,-0.0292,-0.0292,-0.0278,-0.0277,-0.0277,-0.0293,-0.0294,-0.0295,-0.0296,-0.0276,-0.0274,-0.0273,0,0,0,0,0,0,0,0,0,0,0,0,0,-0.026,-0.026,-0.0292,-0.03,-0.0301,-0.0278,-0.0277,-0.0277,-0.0293,-0.0294,-0.0295,-0.0296,-0.0276,-0.0275,-0.0273,-0.0237,0,0,-0.0267,-0.0266,0,0,0,0,0,0,0,0,-0.026,-0.0261,-0.0299,-0.0299,-0.03,-0.029,-0.0258,-0.0264,-0.0292,-0.0294,-0.0295,-0.0297,-0.028,-0.0278,-0.027,-0.0236,-0.0236,-0.0267,-0.0266,-0.0265,-0.0264,0,0,0,0,0,0,0,-0.026,-0.0262,-0.0284,-0.0299,-0.03,-0.0279,-0.028,-0.0259,-0.0279,-0.0294,-0.0295,-0.0296,-0.0281,-0.0272,-0.027,-0.0235,-0.0267,-0.0265,-0.0264,-0.0263,-0.0165,-0.0163,0,0,0,0,0,0,-0.0269,-0.0262,-0.0285,-0.0284,-0.0285,-0.0279,-0.0281,-0.029,-0.0279,-0.0279,-0.0295,-0.0297,-0.0274,-0.0272,-0.0269,-0.0233,-0.0265,-0.0263,-0.0262,-0.0166,-0.0165,-0.0163,0,0,0,0,0,0,-0.0268,-0.0271,-0.0286,-0.0274,-0.0274,-0.0279,-0.0289,-0.029,-0.0285,-0.0281,-0.0281,-0.0292,-0.0275,-0.0272,-0.0246,-0.0232,-0.0262,-0.026,-0.0168,-0.0166,-0.0164,-0.0156,0,0,0,0,0,0,-0.0267,-0.0271,-0.0274,-0.0275,-0.0275,-0.0272,-0.0288,-0.0289,-0.0285,-0.0287,-0.0277,-0.0277,-0.0276,-0.0249,-0.0244,-0.023,-0.0259,-0.017,-0.0167,-0.0164,-0.0158,-0.0154,-0.015,0,0,0,0,0,-0.0266,-0.0267,-0.0274,-0.0277,-0.0282,-0.0271,-0.0269,-0.0274,-0.0284,-0.0276,-0.0267,-0.0277,-0.0228,-0.0246,-0.0241,-0.0226,-0.0171,-0.0168,-0.0165,-0.016,-0.0155,-0.015,0,0,0,0,0,0,-0.0252,-0.0269,-0.0277,-0.0283,-0.0278,-0.0275,-0.0269,-0.0271,-0.0257,-0.0262,-0.0258,-0.0255,-0.0226,-0.022,-0.024,-0.0186,-0.0201,-0.0196,-0.0199,-0.0194,-0.019,-0.0183,-0.0257,0,0,0,0,0,-0.0251,-0.0258,-0.0265,-0.0267,-0.0268,-0.0267,-0.0262,-0.0266,-0.0258,-0.0254,-0.0241,-0.0225,-0.0205,-0.0197,-0.0176,-0.0146,-0.0136,-0.0131,-0.0127,-0.0124,-0.0113,-0.0083,-0.0076,-0.0152,-0.0152,-0.0152,0,0,-0.0244,-0.0255,-0.0257,-0.0263,-0.0263,-0.0253,-0.0267,-0.0262,-0.0248,-0.0251,-0.0221,-0.0209,-0.0192,-0.0161,-0.0148,-0.0158,-0.0097,-0.012,-0.0118,-0.0107,-0.0079,-0.0072,-0.0066,-0.015,-0.015,-0.0151,0,0,-0.0239,-0.0247,-0.0254,-0.0244,-0.0247,-0.0242,-0.0241,-0.0233,-0.0228,-0.0199,-0.0196,-0.0169,-0.014,-0.0121,-0.0111,-0.0066,-0.0075,-0.0065,-0.0044,-0.0016,-0.001,-0.0005,0.0011,0.0018,-0.0067,-0.0067,-0.0067,0,-0.0234,-0.0243,-0.0249,-0.0246,-0.0235,-0.0238,-0.0228,-0.0215,-0.0194,-0.0178,-0.0189,-0.0126,-0.0117,-0.0074,-0.0064,-0.0058,-0.0051,-0.007,-0.0013,-0.0007,-0.0002,0.0014,0.0021,-0.0066,-0.0066,-0.0066,-0.0066,0,-0.0237,-0.023,-0.0229,-0.0228,-0.0212,-0.0203,-0.0189,-0.0167,-0.0161,-0.0146,-0.0101,-0.0081,-0.0044,-0.0038,-0.0042,0.0006,-0.0005,-0.0012,-0.0031,0.0006,0.002,0.0028,-0.0065,-0.0065,-0.0065,-0.0066,0,0,-0.0266,-0.024,-0.0239,-0.0225,-0.0202,-0.0192,-0.0158,-0.013,-0.0104,-0.008,-0.004,-0.0005,0.0004,0.0019,0.0025,0.0046,0.0083,0.0029,0.003,0.0034,0.0134,0.0135,0.0143,0.0077,0.0078,0.0079,0.0124,0,-0.0271,-0.0261,-0.0241,-0.0208,-0.0197,-0.0165,-0.0127,-0.0095,-0.0068,-0.0024,-0.0002,0.0038,0.0025,0.0042,0.0064,0.0081,0.0105,0.0071,0.0108,0.0109,0.0096,0.0153,0.0211,0.0257,0.0132,0.0133,0.0134,0,-0.0292,-0.0275,-0.0259,-0.0194,-0.0187,-0.0161,-0.0101,-0.0066,-0.0004,0.0019,0.0061,0.0081,0.0126,0.0106,0.0157,0.0131,0.0139,0.0147,0.0149,0.0155,0.0125,0.0203,0.0275,0.0347,0.0145,0.0145,0.0144,0,-0.0331,-0.0284,-0.0274,-0.0254,-0.0189,-0.0164,-0.0123,-0.0058,-0.0021,0.0048,0.008,0.0132,0.0158,0.0184,0.0194,0.0179,0.0241,0.0223,0.0235,0.0234,0.0297,0.03,0.0438,0.0269,0.0269,0.0269,0.0269,0,-0.0354,-0.0335,-0.029,-0.028,-0.0238,-0.0184,-0.0131,-0.0078,-0.0006,0.0035,0.0095,0.0133,0.0177,0.0212,0.0218,0.0251,0.0262,0.026,0.0258,0.0301,0.0303,0.0377,0.0392,0.0271,0.0271,0.027,0.027,0,-0.04,-0.0378,-0.0348,-0.0284,-0.0261,-0.0231,-0.0139,-0.0101,-0.0025,0.0032,0.0053,0.0139,0.0189,0.0228,0.0273,0.0283,0.0361,0.0317,0.0359,0.0361,0.044,0.0452,0.0581,0.06,0.0356,0.0357,0.0357,0,-0.0423,-0.0422,-0.0365,-0.0344,-0.0315,-0.0259,-0.022,-0.0129,-0.0091,0.0023,0.0039,0.0125,0.0168,0.0253,0.0316,0.0364,0.0387,0.0426,0.0418,0.0477,0.0489,0.05,0.0507,0.0502,0.0504,0.0505,0.0506,0,-0.0449,-0.0439,-0.0413,-0.0379,-0.0345,-0.0301,-0.0241,-0.0219,-0.0124,-0.0081,-0.0018,0.0035,0.0181,0.029,0.0382,0.0405,0.05,0.0451,0.0522,0.0633,0.065,0.0655,0.0423,0.0518,0.0517,0.0516,0.0515,0.0515,-0.046,-0.0451,-0.0428,-0.0389,-0.0369,-0.0356,-0.0345,-0.0302,-0.0269,-0.0217,-0.0111,-0.0032,0.0242,0.04,0.0457,0.0635,0.0577,0.0666,0.068,0.0689,0.0711,0.0492,0.0571,0.0571,0.057,0.0569,0.0569,0,-0.046,-0.045,-0.043,-0.0404,-0.0413,-0.0388,-0.0369,-0.0384,-0.0399,-0.0327,-0.0269,0.0025,0.0274,0.0512,0.0806,0.0877,0.0886,0.0893,0.0951,0.0945,0.0779,0.079,0.091,0.091,0.091,0.091,0.091,0.091,-0.0456,-0.0443,-0.0431,-0.0443,-0.0449,-0.0483,-0.0497,-0.0532,-0.051,-0.0443,-0.0302,-0.0157,0.0279,0.0847,0.1125,0.1123,0.1161,0.1157,0.1137,0.1056,0.1037,0.1018,0.1035,0.1204,0.1204,0.1326,0.1327,0.1328]}],[{"header":{"parameterUnit":"m.s-1","parameterCategory":2,"la1":30.2991,"la2":30.254,"lo1":-89.0895,"lo2":-89.0444,"dy":0.0017,"dx":0.0017,"nx":28,"ny":28,"refTime":"2023-11-10T09:00:00:Z","depth":"2","parameterNumber":2,"parameterNumberName":"U-component_of_CURRENTS"},"data":[0,0,0,0,0,0,0,0,0,0,0,0,0,0,0,0,0,0,0,0,0,0,0,0,0,0,0,0,0,0,0,0,0,0,0,0,0,0,0,0,0,0,0,0,0,0,0,0,0,0,0,0,0,0,0,0,0,0,-0.1127,-0.1127,0,-0.0977,-0.0974,-0.097,-0.0912,-0.0914,-0.0917,-0.0919,-0.1071,-0.1073,-0.1075,0,0,0,0,0,0,0,0,0,0,0,0,0,-0.1012,-0.1015,-0.1127,-0.1127,-0.1127,-0.0977,-0.0973,-0.0969,-0.0912,-0.0914,-0.0917,-0.092,-0.107,-0.1073,-0.1075,0,0,0,0,0,0,0,0,0,0,0,0,0,-0.0964,-0.1016,-0.1127,-0.1095,-0.1092,-0.0978,-0.0973,-0.0968,-0.0911,-0.0914,-0.0918,-0.0921,-0.1069,-0.1072,-0.1075,-0.1027,0,0,-0.1084,-0.1086,0,0,0,0,0,0,0,0,-0.0967,-0.0966,-0.11,-0.1097,-0.1094,-0.0984,-0.0989,-0.101,-0.091,-0.0959,-0.0919,-0.0923,-0.1081,-0.1082,-0.1014,-0.1034,-0.104,-0.1085,-0.1086,-0.1088,-0.1089,0,0,0,0,0,0,0,-0.0971,-0.097,-0.1048,-0.11,-0.1096,-0.0968,-0.0966,-0.0988,-0.0993,-0.0955,-0.0955,-0.0969,-0.1079,-0.1011,-0.1019,-0.1043,-0.1085,-0.1087,-0.1089,-0.109,-0.1181,-0.1182,0,0,0,0,0,0,-0.1045,-0.0976,-0.1053,-0.1045,-0.1059,-0.0971,-0.0967,-0.1,-0.0986,-0.099,-0.0966,-0.0967,-0.1004,-0.1015,-0.1025,-0.1141,-0.1088,-0.109,-0.1092,-0.1181,-0.1181,-0.1182,0,0,0,0,0,0,-0.1043,-0.1053,-0.1059,-0.102,-0.1015,-0.0974,-0.1007,-0.0995,-0.0988,-0.0995,-0.1002,-0.0983,-0.1007,-0.1021,-0.11,-0.1142,-0.1092,-0.1094,-0.118,-0.1181,-0.1182,-0.1266,0,0,0,0,0,0,-0.104,-0.1054,-0.108,-0.1027,-0.1021,-0.105,-0.1006,-0.0991,-0.0998,-0.0998,-0.1011,-0.1023,-0.1011,-0.1095,-0.1103,-0.1145,-0.1097,-0.1179,-0.118,-0.1181,-0.1262,-0.127,-0.1276,0,0,0,0,0,-0.1036,-0.1035,-0.1083,-0.1092,-0.1068,-0.1054,-0.1037,-0.1001,-0.0997,-0.1002,-0.1016,-0.1026,-0.1108,-0.1099,-0.1107,-0.1152,-0.1178,-0.118,-0.1181,-0.1259,-0.1268,-0.1276,0,0,0,0,0,0,-0.1014,-0.1031,-0.108,-0.1097,-0.1125,-0.1054,-0.1044,-0.1032,-0.1026,-0.1044,-0.1044,-0.1057,-0.1135,-0.1128,-0.1118,-0.1175,-0.1141,-0.1144,-0.1197,-0.1205,-0.1212,-0.1199,-0.1099,0,0,0,0,0,-0.1032,-0.1028,-0.1072,-0.1095,-0.1126,-0.1103,-0.1089,-0.1082,-0.1079,-0.1076,-0.11,-0.1114,-0.1126,-0.1163,-0.1171,-0.1217,-0.1171,-0.1245,-0.1252,-0.1258,-0.125,-0.1184,-0.1183,-0.1187,-0.1187,-0.1187,0,0,-0.1035,-0.1044,-0.1048,-0.1088,-0.1101,-0.113,-0.1099,-0.111,-0.1111,-0.1104,-0.1133,-0.1153,-0.1143,-0.1183,-0.1217,-0.1201,-0.124,-0.126,-0.1265,-0.1253,-0.1185,-0.1185,-0.1184,-0.1188,-0.1188,-0.1187,0,0,-0.1062,-0.107,-0.1115,-0.1121,-0.1174,-0.1149,-0.1186,-0.1186,-0.1175,-0.1203,-0.1197,-0.1224,-0.1267,-0.1241,-0.1234,-0.1279,-0.1276,-0.133,-0.1364,-0.1302,-0.13,-0.1298,-0.1272,-0.1267,-0.1336,-0.1336,-0.1336,0,-0.1091,-0.1123,-0.1126,-0.1174,-0.1173,-0.1186,-0.1239,-0.1205,-0.1225,-0.1229,-0.1242,-0.1242,-0.1256,-0.1254,-0.129,-0.129,-0.1294,-0.134,-0.131,-0.1307,-0.1303,-0.1276,-0.1269,-0.134,-0.134,-0.1339,-0.1339,0,-0.1147,-0.1177,-0.1194,-0.1257,-0.1275,-0.1278,-0.13,-0.1312,-0.1309,-0.1289,-0.1311,-0.1286,-0.1281,-0.1306,-0.1326,-0.1334,-0.1359,-0.1325,-0.129,-0.1308,-0.1279,-0.127,-0.1346,-0.1345,-0.1344,-0.1343,0,0,-0.1185,-0.1229,-0.1238,-0.1267,-0.1288,-0.1303,-0.1328,-0.1341,-0.1333,-0.1342,-0.1308,-0.1336,-0.1336,-0.1326,-0.1342,-0.1321,-0.1322,-0.1363,-0.1358,-0.1339,-0.1251,-0.1299,-0.1294,-0.1324,-0.1322,-0.132,-0.1252,0,-0.1238,-0.1315,-0.1314,-0.136,-0.1397,-0.1379,-0.1386,-0.1398,-0.138,-0.1345,-0.1298,-0.1283,-0.1334,-0.1344,-0.1331,-0.1311,-0.1303,-0.1346,-0.1233,-0.1229,-0.127,-0.1285,-0.1213,-0.115,-0.1243,-0.1242,-0.1241,0,-0.1292,-0.1312,-0.1388,-0.1388,-0.1412,-0.143,-0.1417,-0.1419,-0.1378,-0.1371,-0.1345,-0.1309,-0.1279,-0.1289,-0.1246,-0.1302,-0.1304,-0.1281,-0.1276,-0.1278,-0.126,-0.1138,-0.113,-0.1226,-0.1227,-0.1228,-0.1229,0,-0.1295,-0.1344,-0.1384,-0.1375,-0.1406,-0.1425,-0.1434,-0.144,-0.1422,-0.1375,-0.135,-0.1301,-0.1228,-0.1224,-0.1201,-0.1248,-0.1129,-0.114,-0.1173,-0.1177,-0.1062,-0.1059,-0.1096,-0.1096,-0.1096,-0.1096,-0.1096,0,-0.1294,-0.131,-0.1377,-0.138,-0.1385,-0.1434,-0.1427,-0.1437,-0.1411,-0.1385,-0.1361,-0.1298,-0.1221,-0.1143,-0.1167,-0.1142,-0.1081,-0.1181,-0.1156,-0.1097,-0.1098,-0.1111,-0.1114,-0.1093,-0.1094,-0.1095,-0.1095,0,-0.1289,-0.133,-0.1338,-0.1379,-0.1392,-0.1393,-0.1409,-0.1378,-0.1411,-0.1355,-0.134,-0.1256,-0.1209,-0.1139,-0.1063,-0.1067,-0.1043,-0.105,-0.1012,-0.0988,-0.1155,-0.1163,-0.1092,-0.1093,-0.1094,-0.1094,-0.1095,0,-0.1296,-0.1313,-0.1335,-0.1328,-0.1338,-0.1345,-0.1332,-0.1362,-0.133,-0.134,-0.128,-0.1225,-0.1199,-0.1094,-0.1094,-0.1101,-0.1061,-0.0978,-0.1042,-0.1169,-0.1151,-0.1158,-0.1164,-0.0923,-0.0922,-0.0922,-0.0921,0,-0.1262,-0.1269,-0.1263,-0.1268,-0.1249,-0.1212,-0.1211,-0.1177,-0.1206,-0.1221,-0.1206,-0.1209,-0.1201,-0.1143,-0.1131,-0.1112,-0.0981,-0.0973,-0.1034,-0.0967,-0.1012,-0.0995,-0.1006,-0.0915,-0.0915,-0.0916,-0.0916,-0.0916,-0.1201,-0.1169,-0.1176,-0.114,-0.114,-0.1071,-0.1002,-0.1009,-0.098,-0.0993,-0.1075,-0.112,-0.1089,-0.1111,-0.1076,-0.1038,-0.1116,-0.0988,-0.0988,-0.0988,-0.1013,-0.106,-0.0977,-0.0978,-0.0979,-0.098,-0.098,0,-0.1096,-0.1071,-0.1056,-0.0989,-0.0924,-0.0993,-0.0906,-0.0829,-0.078,-0.0885,-0.0951,-0.0918,-0.0965,-0.0982,-0.1004,-0.1011,-0.0979,-0.0888,-0.0823,-0.0829,-0.0835,-0.085,-0.0771,-0.0771,-0.077,-0.077,0,0,-0.1037,-0.0953,-0.092,-0.0765,-0.0768,-0.0659,-0.059,-0.0561,-0.0591,-0.0599,-0.0703,-0.0873,-0.0966,-0.0864,-0.0831,-0.0818,-0.0802,-0.0772,-0.0935,-0.0862,-0.0867,-0.0885,-0.0915,0,0,0,0,0]},{"header":{"parameterUnit":"m.s-1","parameterCategory":2,"la1":30.2991,"la2":30.254,"lo1":-89.0895,"lo2":-89.0444,"dy":0.0017,"dx":0.0017,"nx":28,"ny":28,"refTime":"2023-11-10T09:00:00:Z","depth":"2","parameterNumber":3,"parameterNumberName":"V-component_of_CURRENTS"},"data":[0,0,0,0,0,0,0,0,0,0,0,0,0,0,0,0,0,0,0,0,0,0,0,0,0,0,0,0,0,0,0,0,0,0,0,0,0,0,0,0,0,0,0,0,0,0,0,0,0,0,0,0,0,0,0,0,0,0,-0.0386,-0.0385,0,-0.0418,-0.0419,-0.042,-0.0466,-0.0466,-0.0466,-0.0466,-0.0416,-0.0415,-0.0413,0,0,0,0,0,0,0,0,0,0,0,0,0,-0.037,-0.0371,-0.0386,-0.0385,-0.0385,-0.0418,-0.0419,-0.042,-0.0466,-0.0466,-0.0466,-0.0466,-0.0416,-0.0415,-0.0413,0,0,0,0,0,0,0,0,0,0,0,0,0,-0.0395,-0.0371,-0.0386,-0.0406,-0.0407,-0.0418,-0.0419,-0.0421,-0.0466,-0.0466,-0.0466,-0.0466,-0.0417,-0.0415,-0.0413,-0.0398,0,0,-0.0407,-0.0406,0,0,0,0,0,0,0,0,-0.0393,-0.0396,-0.0403,-0.0404,-0.0406,-0.0431,-0.0395,-0.0406,-0.0466,-0.0452,-0.0466,-0.0466,-0.0408,-0.0407,-0.0425,-0.0396,-0.0394,-0.0406,-0.0405,-0.0404,-0.0404,0,0,0,0,0,0,0,-0.0391,-0.0395,-0.0407,-0.0403,-0.0404,-0.0415,-0.042,-0.0399,-0.0434,-0.0453,-0.0455,-0.0446,-0.0409,-0.0427,-0.0424,-0.0393,-0.0406,-0.0405,-0.0403,-0.0402,-0.0318,-0.0317,0,0,0,0,0,0,-0.0371,-0.0393,-0.0405,-0.0407,-0.0391,-0.0415,-0.042,-0.0429,-0.0436,-0.0435,-0.0445,-0.0447,-0.0431,-0.0426,-0.0422,-0.0375,-0.0404,-0.0402,-0.0401,-0.0319,-0.0318,-0.0317,0,0,0,0,0,0,-0.0371,-0.0373,-0.0404,-0.0393,-0.0397,-0.0414,-0.0425,-0.043,-0.0437,-0.0429,-0.0429,-0.0445,-0.0431,-0.0425,-0.039,-0.0374,-0.0401,-0.0399,-0.032,-0.0318,-0.0317,-0.0299,0,0,0,0,0,0,-0.0371,-0.0373,-0.0376,-0.0393,-0.0397,-0.0402,-0.0424,-0.043,-0.0428,-0.0431,-0.0428,-0.0425,-0.043,-0.0393,-0.0388,-0.0372,-0.0398,-0.0321,-0.0319,-0.0318,-0.0301,-0.0298,-0.0294,0,0,0,0,0,-0.0371,-0.0376,-0.0376,-0.0377,-0.0399,-0.0401,-0.0405,-0.0422,-0.0427,-0.043,-0.0421,-0.0425,-0.0378,-0.039,-0.0384,-0.0368,-0.0322,-0.032,-0.0318,-0.0303,-0.0298,-0.0294,0,0,0,0,0,0,-0.0363,-0.0381,-0.0382,-0.039,-0.0386,-0.0405,-0.0414,-0.0412,-0.0412,-0.0415,-0.0408,-0.0404,-0.0372,-0.0365,-0.0379,-0.0337,-0.0351,-0.0348,-0.0342,-0.0337,-0.0334,-0.0332,-0.0396,0,0,0,0,0,-0.0361,-0.0377,-0.0378,-0.0381,-0.0385,-0.0394,-0.0396,-0.0402,-0.04,-0.0403,-0.0388,-0.0375,-0.0361,-0.0345,-0.0334,-0.0302,-0.0296,-0.0287,-0.0284,-0.0281,-0.0275,-0.0257,-0.0252,-0.0309,-0.0309,-0.0309,0,0,-0.0359,-0.0366,-0.0376,-0.0381,-0.0392,-0.039,-0.04,-0.0403,-0.0394,-0.0392,-0.0374,-0.0361,-0.035,-0.0325,-0.0309,-0.0314,-0.026,-0.0278,-0.0276,-0.0271,-0.0254,-0.0249,-0.0244,-0.0308,-0.0308,-0.0308,0,0,-0.0355,-0.0372,-0.0382,-0.0378,-0.0377,-0.0386,-0.0378,-0.038,-0.0382,-0.0354,-0.0354,-0.0328,-0.0297,-0.0292,-0.0285,-0.025,-0.0245,-0.024,-0.0215,-0.0198,-0.0193,-0.0189,-0.0169,-0.0164,-0.0234,-0.0234,-0.0234,0,-0.0347,-0.0364,-0.0379,-0.0374,-0.037,-0.0378,-0.0372,-0.0375,-0.0356,-0.0341,-0.0343,-0.0296,-0.0288,-0.0257,-0.0248,-0.0243,-0.0227,-0.0235,-0.0194,-0.019,-0.0186,-0.0167,-0.0161,-0.0233,-0.0233,-0.0233,-0.0233,0,-0.0352,-0.0354,-0.036,-0.0365,-0.0355,-0.0361,-0.0352,-0.0339,-0.0333,-0.032,-0.0282,-0.0271,-0.0241,-0.0233,-0.0229,-0.019,-0.0186,-0.0197,-0.0208,-0.0179,-0.0161,-0.0155,-0.0231,-0.0231,-0.0232,-0.0232,0,0,-0.0375,-0.0369,-0.0368,-0.0367,-0.0357,-0.0355,-0.0333,-0.0318,-0.0302,-0.0276,-0.0252,-0.0219,-0.0203,-0.0194,-0.0184,-0.0161,-0.0123,-0.0158,-0.0158,-0.0144,-0.0072,-0.0058,-0.005,-0.0122,-0.012,-0.012,-0.0069,0,-0.0382,-0.0377,-0.0363,-0.0354,-0.0362,-0.0342,-0.0317,-0.0291,-0.0275,-0.0253,-0.0235,-0.0207,-0.0194,-0.0176,-0.0152,-0.0134,-0.0106,-0.0135,-0.0097,-0.0095,-0.0091,-0.0043,-0.0037,0.001,-0.0063,-0.0062,-0.0061,0,-0.0399,-0.0399,-0.0391,-0.0362,-0.036,-0.0341,-0.0313,-0.0289,-0.0251,-0.0228,-0.0192,-0.0178,-0.0138,-0.0145,-0.0083,-0.0098,-0.0075,-0.0063,-0.0061,-0.005,-0.007,-0.003,0.0023,-0.0051,-0.0052,-0.0053,-0.0054,0,-0.0437,-0.0417,-0.0418,-0.0412,-0.0377,-0.0356,-0.0332,-0.0281,-0.0256,-0.0214,-0.0187,-0.0145,-0.013,-0.0089,-0.0054,-0.006,-0.0001,-0.0015,0.0021,0.0021,0.0032,0.0033,0.003,0.003,0.003,0.003,0.003,0,-0.0465,-0.0463,-0.0439,-0.0441,-0.0433,-0.0382,-0.0354,-0.0315,-0.026,-0.0229,-0.0179,-0.0147,-0.0113,-0.0078,-0.0045,0.0013,0.001,0.0042,0.0042,0.004,0.004,-0.0014,-0.0019,0.0032,0.0031,0.0031,0.0031,0,-0.05,-0.0488,-0.0496,-0.0466,-0.0453,-0.0447,-0.0377,-0.0356,-0.0279,-0.0242,-0.0223,-0.015,-0.0081,-0.0045,0.0008,0.0024,0.0073,0.009,0.0087,0.0087,0.0082,0.0077,0.0147,0.0148,0.0149,0.015,0.0151,0,-0.0514,-0.0526,-0.0523,-0.0525,-0.0512,-0.0487,-0.0465,-0.0388,-0.0363,-0.0238,-0.0236,-0.0142,-0.0082,0.0011,0.0089,0.0165,0.0113,0.0161,0.015,0.0104,0.0097,0.0091,0.0084,0.0173,0.0174,0.0174,0.0175,0,-0.055,-0.0556,-0.0564,-0.0567,-0.0564,-0.0564,-0.0527,-0.0521,-0.0426,-0.0366,-0.0284,-0.021,-0.0037,0.0061,0.0167,0.02,0.0152,0.0177,0.0138,0.0139,0.0132,0.0123,0.0116,0.018,0.018,0.0179,0.0179,0.0179,-0.0575,-0.06,-0.0606,-0.0616,-0.0612,-0.0645,-0.0662,-0.0621,-0.0594,-0.0504,-0.0397,-0.0261,-0.01,0.0077,0.019,0.0283,0.0266,0.0219,0.0216,0.0213,0.0203,0.0197,0.0257,0.0257,0.0257,0.0257,0.0257,0,-0.0603,-0.0627,-0.0638,-0.0671,-0.0689,-0.0668,-0.0695,-0.0702,-0.0698,-0.0589,-0.0493,-0.0303,-0.0136,0.0049,0.0251,0.0342,0.0344,0.0302,0.0279,0.0273,0.0267,0.0259,0.0329,0.033,0.033,0.0331,0,0,-0.0616,-0.0649,-0.0667,-0.073,-0.0741,-0.0789,-0.0826,-0.0814,-0.0758,-0.066,-0.0541,-0.0421,-0.015,-0.0038,0.0117,0.0237,0.0213,0.0235,0.0164,0.0111,0.0104,0.0207,0.0186,0,0,0,0,0]}],[{"header":{"parameterUnit":"m.s-1","parameterCategory":2,"la1":30.2991,"la2":30.254,"lo1":-89.0895,"lo2":-89.0444,"dy":0.0017,"dx":0.0017,"nx":28,"ny":28,"refTime":"2023-11-10T09:00:00:Z","depth":"4","parameterNumber":2,"parameterNumberName":"U-component_of_CURRENTS"},"data":[0,0,0,0,0,0,0,0,0,0,0,0,0,0,0,0,0,0,0,0,0,0,0,0,0,0,0,0,0,0,0,0,0,0,0,0,0,0,0,0,0,0,0,0,0,0,0,0,0,0,0,0,0,0,0,0,0,0,-0.0342,-0.0342,0,-0.0353,-0.0354,-0.0354,-0.0375,-0.0375,-0.0375,-0.0376,-0.0412,-0.0412,-0.0413,0,0,0,0,0,0,0,0,0,0,0,0,0,-0.0322,-0.0323,-0.0342,-0.0342,-0.0342,-0.0353,-0.0354,-0.0354,-0.0375,-0.0375,-0.0376,-0.0376,-0.0411,-0.0412,-0.0413,0,0,0,0,0,0,0,0,0,0,0,0,0,-0.0332,-0.0323,-0.0342,-0.0354,-0.0355,-0.0353,-0.0354,-0.0354,-0.0375,-0.0375,-0.0376,-0.0376,-0.0411,-0.0412,-0.0413,-0.0407,0,0,-0.0416,-0.0416,0,0,0,0,0,0,0,0,-0.0332,-0.0333,-0.0352,-0.0353,-0.0354,-0.0363,-0.036,-0.0373,-0.0374,-0.0368,-0.0376,-0.0377,-0.0397,-0.0399,-0.04,-0.0409,-0.041,-0.0416,-0.0416,-0.0417,-0.0417,0,0,0,0,0,0,0,-0.0331,-0.0333,-0.0347,-0.0352,-0.0354,-0.0353,-0.0355,-0.0362,-0.038,-0.0368,-0.037,-0.037,-0.0398,-0.0399,-0.0401,-0.0411,-0.0416,-0.0417,-0.0417,-0.0417,-0.045,-0.0451,0,0,0,0,0,0,-0.0329,-0.0332,-0.0347,-0.0347,-0.0344,-0.0353,-0.0355,-0.036,-0.0379,-0.0382,-0.037,-0.0371,-0.0397,-0.04,-0.0402,-0.0427,-0.0417,-0.0418,-0.0418,-0.045,-0.0451,-0.0451,0,0,0,0,0,0,-0.0329,-0.0331,-0.0346,-0.0339,-0.0341,-0.0353,-0.0358,-0.036,-0.0388,-0.038,-0.0384,-0.0398,-0.0398,-0.0401,-0.0424,-0.0428,-0.0418,-0.0419,-0.045,-0.045,-0.0451,-0.0457,0,0,0,0,0,0,-0.0328,-0.0331,-0.0351,-0.0339,-0.0342,-0.0362,-0.0357,-0.036,-0.0385,-0.0388,-0.0405,-0.0407,-0.0399,-0.0422,-0.0424,-0.0429,-0.0419,-0.0449,-0.045,-0.0451,-0.0456,-0.0458,-0.0459,0,0,0,0,0,-0.0328,-0.0342,-0.0352,-0.0354,-0.0363,-0.0362,-0.0364,-0.0373,-0.0386,-0.0401,-0.0409,-0.0408,-0.0428,-0.0423,-0.0426,-0.043,-0.0449,-0.045,-0.0451,-0.0456,-0.0457,-0.0459,0,0,0,0,0,0,-0.0339,-0.0345,-0.0355,-0.0372,-0.0377,-0.0366,-0.0383,-0.0391,-0.0409,-0.0422,-0.0416,-0.0419,-0.0435,-0.0437,-0.0433,-0.0442,-0.0437,-0.0438,-0.044,-0.0441,-0.0443,-0.0441,-0.042,0,0,0,0,0,-0.0352,-0.0375,-0.0369,-0.0389,-0.0391,-0.0395,-0.0403,-0.0412,-0.0417,-0.0428,-0.0434,-0.044,-0.0435,-0.0445,-0.0444,-0.0457,-0.046,-0.0461,-0.0462,-0.0463,-0.0464,-0.0468,-0.0469,-0.0453,-0.0453,-0.0453,0,0,-0.036,-0.0371,-0.0383,-0.0395,-0.04,-0.0411,-0.0402,-0.0423,-0.0443,-0.0428,-0.0463,-0.0449,-0.044,-0.0445,-0.0453,-0.0451,-0.0472,-0.0464,-0.0465,-0.0465,-0.0469,-0.047,-0.0471,-0.0454,-0.0454,-0.0454,0,0,-0.0378,-0.0398,-0.0417,-0.0424,-0.0442,-0.0445,-0.0458,-0.0461,-0.0477,-0.0492,-0.0484,-0.0482,-0.0482,-0.0474,-0.0468,-0.0483,-0.0476,-0.0477,-0.0484,-0.0488,-0.0489,-0.049,-0.0506,-0.0508,-0.0479,-0.0479,-0.0479,0,-0.0391,-0.0411,-0.0423,-0.0438,-0.0453,-0.0464,-0.0483,-0.0495,-0.051,-0.0521,-0.0509,-0.0499,-0.0494,-0.0495,-0.0482,-0.0486,-0.0484,-0.0478,-0.0489,-0.049,-0.0491,-0.0506,-0.0509,-0.048,-0.0479,-0.0479,-0.0479,0,-0.0403,-0.0434,-0.0443,-0.0474,-0.0496,-0.0513,-0.0528,-0.0556,-0.0568,-0.0564,-0.057,-0.0546,-0.053,-0.0527,-0.0499,-0.0501,-0.0496,-0.0488,-0.0484,-0.0493,-0.0509,-0.0511,-0.048,-0.048,-0.048,-0.048,0,0,-0.0393,-0.0442,-0.0451,-0.0476,-0.0518,-0.0532,-0.058,-0.0606,-0.0633,-0.0623,-0.0638,-0.0602,-0.0567,-0.0558,-0.053,-0.0528,-0.0526,-0.0499,-0.0499,-0.0513,-0.0534,-0.0486,-0.0484,-0.0509,-0.0509,-0.0509,-0.0546,0,-0.04,-0.0438,-0.0469,-0.052,-0.0539,-0.0579,-0.0621,-0.0656,-0.0667,-0.0683,-0.0655,-0.0637,-0.0586,-0.0558,-0.0549,-0.0535,-0.053,-0.0517,-0.0525,-0.0526,-0.048,-0.0484,-0.051,-0.0548,-0.0548,-0.0549,-0.0549,0,-0.0396,-0.043,-0.0479,-0.055,-0.0563,-0.0603,-0.0676,-0.0704,-0.0734,-0.073,-0.0705,-0.0672,-0.0648,-0.0602,-0.0583,-0.057,-0.0541,-0.0535,-0.0537,-0.0489,-0.0481,-0.0535,-0.0553,-0.0553,-0.0553,-0.0552,-0.0552,0,-0.0372,-0.0437,-0.0484,-0.0503,-0.0582,-0.0627,-0.0665,-0.0719,-0.0749,-0.074,-0.0746,-0.071,-0.0691,-0.0655,-0.0614,-0.0587,-0.0617,-0.0586,-0.0526,-0.0524,-0.0555,-0.0553,-0.0572,-0.0572,-0.0572,-0.0572,-0.0571,0,-0.0355,-0.0395,-0.0479,-0.0497,-0.0565,-0.0621,-0.0685,-0.0709,-0.0758,-0.0781,-0.0745,-0.0736,-0.0696,-0.0698,-0.0649,-0.0603,-0.0641,-0.0528,-0.0525,-0.0558,-0.0557,-0.0557,-0.0555,-0.0573,-0.0573,-0.0572,-0.0572,0,-0.0321,-0.0373,-0.0425,-0.0515,-0.0553,-0.0594,-0.0691,-0.0726,-0.0765,-0.0798,-0.0784,-0.077,-0.0722,-0.0716,-0.0681,-0.0649,-0.0616,-0.0591,-0.0654,-0.0655,-0.0511,-0.0508,-0.0511,-0.051,-0.0508,-0.0507,-0.0507,0,-0.0307,-0.0331,-0.0424,-0.0464,-0.0511,-0.0587,-0.0643,-0.0707,-0.0728,-0.0799,-0.0793,-0.078,-0.0749,-0.067,-0.0659,-0.0603,-0.0573,-0.0595,-0.0509,-0.0505,-0.0502,-0.0502,-0.0502,-0.0504,-0.0504,-0.0504,-0.0503,0,-0.0278,-0.0316,-0.0354,-0.0429,-0.0496,-0.0556,-0.0621,-0.0615,-0.0686,-0.0777,-0.0732,-0.0701,-0.0667,-0.0593,-0.058,-0.0534,-0.0604,-0.058,-0.0581,-0.05,-0.0497,-0.0495,-0.0497,-0.0499,-0.05,-0.05,-0.05,0,-0.0259,-0.0271,-0.0323,-0.0388,-0.0461,-0.0471,-0.0508,-0.0529,-0.0557,-0.063,-0.0622,-0.0608,-0.0645,-0.0559,-0.0545,-0.0503,-0.045,-0.0438,-0.0445,-0.045,-0.0411,-0.0396,-0.0365,0,0,0,0,0,-0.0235,-0.0244,-0.0288,-0.0323,-0.0384,-0.0431,-0.0484,-0.0515,-0.0589,-0.0533,-0.0569,-0.0517,-0.047,-0.0456,-0.0381,-0.049,-0.0448,-0.0408,-0.0436,-0.0474,-0.0479,-0.0437,0,0,0,0,0,0,-0.0222,-0.025,-0.0262,-0.0265,-0.028,-0.033,-0.0348,-0.0395,-0.0339,-0.0425,-0.0357,-0.0504,-0.0411,-0.0487,-0.0375,-0.0381,-0.0389,-0.0437,-0.0436,-0.0471,-0.0476,-0.048,-0.0439,0,0,0,0,0]},{"header":{"parameterUnit":"m.s-1","parameterCategory":2,"la1":30.2991,"la2":30.254,"lo1":-89.0895,"lo2":-89.0444,"dy":0.0017,"dx":0.0017,"nx":28,"ny":28,"refTime":"2023-11-10T09:00:00:Z","depth":"4","parameterNumber":3,"parameterNumberName":"V-component_of_CURRENTS"},"data":[0,0,0,0,0,0,0,0,0,0,0,0,0,0,0,0,0,0,0,0,0,0,0,0,0,0,0,0,0,0,0,0,0,0,0,0,0,0,0,0,0,0,0,0,0,0,0,0,0,0,0,0,0,0,0,0,0,0,0.0015,0.0015,0,0.0048,0.0049,0.0049,0.0123,0.0124,0.0126,0.0127,0.0208,0.0209,0.021,0,0,0,0,0,0,0,0,0,0,0,0,0,0.0013,0.0013,0.0015,0.0015,0.0015,0.0048,0.0049,0.005,0.0123,0.0124,0.0126,0.0128,0.0208,0.0209,0.021,0,0,0,0,0,0,0,0,0,0,0,0,0,0.0029,0.0013,0.0014,0.0054,0.0058,0.0048,0.0049,0.005,0.0122,0.0124,0.0126,0.0128,0.0207,0.0209,0.021,0.0179,0,0,0.0214,0.0215,0,0,0,0,0,0,0,0,0.0028,0.0029,0.0048,0.0051,0.0056,0.0082,0.0078,0.0095,0.0122,0.01,0.0127,0.0129,0.0168,0.0172,0.0176,0.0183,0.0186,0.0215,0.0215,0.0216,0.0216,0,0,0,0,0,0,0,0.0027,0.0028,0.003,0.0048,0.0053,0.007,0.0075,0.0082,0.0125,0.0102,0.0107,0.0107,0.0171,0.0175,0.0179,0.0188,0.0215,0.0216,0.0217,0.0217,0.0249,0.0249,0,0,0,0,0,0,0.0016,0.0027,0.0029,0.0031,0.0044,0.0068,0.0074,0.0073,0.0124,0.0132,0.0105,0.011,0.0171,0.0177,0.0182,0.0198,0.0216,0.0217,0.0218,0.0249,0.0249,0.0249,0,0,0,0,0,0,0.0016,0.0016,0.0027,0.0028,0.0031,0.0066,0.0065,0.0073,0.01,0.0125,0.0136,0.0128,0.0173,0.018,0.0208,0.02,0.0218,0.0219,0.0249,0.0249,0.0249,0.0197,0,0,0,0,0,0,0.0016,0.0016,0.0017,0.0027,0.003,0.0028,0.0063,0.0072,0.0095,0.0103,0.0147,0.0156,0.0175,0.0206,0.021,0.0202,0.022,0.0249,0.0249,0.0249,0.0199,0.0196,0.0193,0,0,0,0,0,0.0016,0.0002,0.0017,0.0017,0.0029,0.0027,0.003,0.0063,0.0094,0.0098,0.0137,0.0156,0.0209,0.0207,0.0211,0.0204,0.0249,0.0249,0.0249,0.0201,0.0196,0.0193,0,0,0,0,0,0,0.0003,0.0008,0.0025,0.0015,0.0025,0.0039,0.0043,0.0068,0.01,0.0119,0.0152,0.0162,0.0184,0.0202,0.0199,0.0215,0.0233,0.0234,0.0194,0.0191,0.0188,0.0176,0.0222,0,0,0,0,0,-0.0002,-0.0005,0.0002,-0.0,0.0,0.0026,0.0033,0.0057,0.0081,0.0099,0.0131,0.0164,0.018,0.0195,0.0214,0.0217,0.0248,0.0218,0.0215,0.0212,0.0207,0.0243,0.0242,0.0249,0.0249,0.0249,0,0,-0.0008,-0.0004,-0.0005,-0.0002,0.0009,0.0004,0.0037,0.0048,0.006,0.01,0.0132,0.0154,0.0181,0.019,0.0201,0.0208,0.0229,0.0212,0.0209,0.0206,0.0243,0.0242,0.0241,0.0249,0.0249,0.0249,0,0,-0.0027,-0.0018,-0.0027,-0.0024,-0.0011,-0.0001,0.0004,0.0027,0.0056,0.0074,0.0111,0.0135,0.0157,0.0178,0.0189,0.018,0.0212,0.0182,0.0153,0.0187,0.0187,0.0187,0.0234,0.0239,0.0178,0.0178,0.0178,0,-0.0029,-0.0041,-0.003,-0.0038,-0.0039,-0.0004,-0.0015,0.0009,0.0045,0.0061,0.0082,0.0124,0.0152,0.0162,0.0157,0.0173,0.0197,0.0162,0.0182,0.0183,0.0183,0.0232,0.0238,0.0176,0.0176,0.0176,0.0176,0,-0.0054,-0.0062,-0.007,-0.0068,-0.0069,-0.0072,-0.005,-0.0029,0.0005,0.0028,0.0057,0.0092,0.0114,0.0124,0.0133,0.0145,0.0164,0.0174,0.0188,0.0179,0.0232,0.0239,0.0172,0.0173,0.0174,0.0174,0,0,-0.0064,-0.0083,-0.0084,-0.0092,-0.0084,-0.0089,-0.0075,-0.006,-0.0048,-0.0006,0.0005,0.0038,0.0059,0.0073,0.0096,0.0121,0.0152,0.0137,0.014,0.0178,0.0232,0.013,0.0128,0.0157,0.0157,0.0158,0.027,0,-0.0081,-0.0111,-0.0115,-0.0137,-0.0153,-0.0131,-0.0128,-0.0104,-0.0075,-0.0055,-0.0006,0.0014,0.004,0.0046,0.0073,0.0134,0.0165,0.0121,0.0241,0.0245,0.0149,0.013,0.016,0.0275,0.0277,0.0278,0.0279,0,-0.0101,-0.012,-0.0152,-0.0176,-0.0181,-0.0188,-0.0181,-0.0169,-0.0133,-0.0111,-0.0082,-0.0047,0.0,0.0019,0.0125,0.0091,0.0151,0.0202,0.0208,0.0131,0.0153,0.0286,0.0292,0.0291,0.029,0.0289,0.0288,0,-0.0114,-0.0145,-0.0173,-0.018,-0.0202,-0.0205,-0.0204,-0.0182,-0.0173,-0.0138,-0.0134,-0.0074,-0.0038,0.0041,0.0142,0.0133,0.0258,0.0269,0.0242,0.0238,0.0323,0.0322,0.0338,0.0338,0.0338,0.0338,0.0337,0,-0.0132,-0.0156,-0.018,-0.0197,-0.0225,-0.0225,-0.024,-0.0227,-0.0212,-0.0224,-0.0161,-0.0169,-0.0036,0.0044,0.0135,0.0203,0.0264,0.0228,0.0247,0.0301,0.0296,0.0329,0.0327,0.0342,0.0341,0.034,0.0339,0,-0.0146,-0.0163,-0.0197,-0.0224,-0.0234,-0.0246,-0.0263,-0.0276,-0.0252,-0.0266,-0.0258,-0.0209,-0.0153,-0.0015,0.0122,0.0184,0.0275,0.0289,0.0349,0.0372,0.0238,0.0232,0.0259,0.0256,0.0254,0.0252,0.025,0,-0.0157,-0.0177,-0.0214,-0.0234,-0.0248,-0.0268,-0.0293,-0.029,-0.0312,-0.0315,-0.0337,-0.0288,-0.026,-0.01,0.0009,0.0179,0.019,0.0284,0.0235,0.0207,0.0225,0.0223,0.022,0.0246,0.0245,0.0244,0.0244,0,-0.0178,-0.0188,-0.0213,-0.0247,-0.0279,-0.0327,-0.0362,-0.0367,-0.0385,-0.0383,-0.0396,-0.034,-0.0297,-0.0182,-0.0043,0.0072,0.0247,0.0258,0.0263,0.0217,0.0192,0.0211,0.0212,0.0235,0.0236,0.0237,0.0238,0,-0.0185,-0.0198,-0.0222,-0.0249,-0.0306,-0.0361,-0.0373,-0.0412,-0.0424,-0.0426,-0.0452,-0.0391,-0.0356,-0.0244,-0.0127,-0.0023,-0.002,0.0062,0.0078,0.0089,-0.0019,-0.008,-0.0115,0,0,0,0,0,-0.0187,-0.0194,-0.0223,-0.026,-0.0325,-0.0361,-0.0421,-0.0433,-0.0456,-0.0473,-0.0451,-0.0427,-0.0324,-0.0287,-0.0208,-0.0197,0.0001,-0.0101,0.0106,0.0186,0.0197,0.0085,0,0,0,0,0,0,-0.0186,-0.0209,-0.0213,-0.0272,-0.0305,-0.0384,-0.0421,-0.044,-0.0444,-0.0454,-0.0402,-0.0402,-0.0303,-0.0367,-0.0205,-0.0185,-0.004,-0.0065,-0.0063,0.0181,0.019,0.0198,0.0087,0,0,0,0,0]}]]